Location: *
(53.9002°N, 27.5624°E)
Time: 02:53:50
(UTC+00:00)

CZ-4B R/B - Pass Details

Date: 12 November 2019
Orbit: 394 x 468 km, 97.6° (Epoch: 05 December)

Event Time Altitude Azimuth Distance (km) Brightness Sun altitude
Rises 15:04:44 0° 8° (N) 2,393 4.8 -7.3°
Reaches altitude 10° 15:06:48 10° 360° (N) 1,536 3.9 -7.6°
Maximum altitude 15:09:52 37° 292° (WNW) 700 2.9 -8.0°
Drops below altitude 10° 15:12:58 10° 223° (SW) 1,562 5.2 -8.4°
Sets 15:15:06 0° 215° (SW) 2,441 6.1 -8.7°
